Regional Weather Roundup
Issued by NWS

Home | Current Version | Previous Version | Text Only | Print | Product List | Glossary On
Versions: 1 2 3 4 5 6 7 8 9 10 11 12 13 14 15 16 17 18 19 20 21 22 23 24 25 26 27
000
ASUS46 KSEW 231710
RWRWA

WASHINGTON REGIONAL WEATHER ROUNDUP
NATIONAL WEATHER SERVICE SEATTLE WA
1000 AM PDT MON APR 23 2018

NOTE:"FAIR" INDICATES FEW OR NO CLOUDS BELOW 12,000 FEET WITH NO
SIGNIFICANT WEATHER AND/OR OBSTRUCTIONS TO VISIBILITY.

WAZ507-509-555>559-231800-
SEATTLE, TACOMA, EVERETT, AND VICINITY

CITY           SKY/WX    TMP DP  RH WIND       PRES   REMARKS
EVERETT        SUNNY     53  40  61 NW5       30.37S
BOEING FIELD   SUNNY     54  38  54 VRB7      30.36F
RENTON         SUNNY     52  42  69 NW8       30.36F
SEATAC AIRPORT MOSUNNY   53  40  61 N12       30.35F
JBLM-MCCHORD   SUNNY     53  43  69 NE6       30.35S
PUYALLUP       FAIR      55  41  58 CALM      30.34F
BREMERTON      NOT AVBL
JBLM-FT LEWIS  NOT AVBL
TACOMA NARROWS SUNNY     51  40  65 N9        30.36S
$$

WAZ001-503-506-510-514-515-231800-
NORTH INTERIOR

CITY           SKY/WX    TMP DP  RH WIND       PRES   REMARKS
BELLINGHAM     SUNNY     55  36  48 N9        30.37F
FRIDAY HARBOR  SUNNY     54  35  48 N7        30.39F
EASTSOUND      SUNNY     52  37  58 VRB3      30.39S
PORT ANGELES   SUNNY     50  41  71 E8        30.39S
EDIZ HOOK      FAIR      50  41  70 CALM      30.39S
PORT TOWNSEND  FAIR      54  41  62 CALM      30.38S
NAS WHIDBEY    MOSUNNY   54  42  64 NW7       30.42S
ARLINGTON      SUNNY     51  40  65 CALM      30.38F
BURLINGTON     SUNNY     52  41  66 W3        30.38F
$$

WAZ020-022-039-040-504-511-512-231800-
SOUTHWEST INTERIOR

CITY           SKY/WX    TMP DP  RH WIND       PRES   REMARKS
SHELTON        SUNNY     55  38  52 CALM      30.33F
OLYMPIA        SUNNY     53  40  61 N10       30.34F
CHEHALIS       FAIR      54  43  66 NE5       30.33F
KELSO          MOSUNNY   54  40  59 N8        30.30F
VANCOUVER      MOSUNNY   54  42  64 W5        30.28F
SCAPPOOSE, OR  MOSUNNY   56  38  50 N3        30.28F
PORTLAND, OR   PTSUNNY   54  39  57 W6        30.28F
$$

WAZ021-516-517-231800-
WASHINGTON COAST

CITY           SKY/WX    TMP DP  RH WIND       PRES   REMARKS
FORKS          SUNNY     55  34  45 E5        30.33F
HOQUIAM        MOSUNNY   55  43  63 E9        30.31F
ASTORIA, OR    MOSUNNY   56  42  59 NE9       30.26F
$$

WAZ019-023-024-040-567>569-231800-
CASCADE MOUNTAINS AND COLUMBIA GORGE

CITY           SKY/WX    TMP DP  RH WIND       PRES   REMARKS
STAMPEDE PASS  NOT AVBL
TROUTDALE, OR  MOSUNNY   59  34  39 E17G24    30.26F
HOOD RIVER, OR SUNNY     52  36  54 CALM      30.37F
THE DALLES, OR SUNNY     52  34  50 CALM      30.39F
$$

WAZ026-027-041>044-520-521-231800-
EAST SLOPES

CITY           SKY/WX    TMP DP  RH WIND       PRES   REMARKS
OMAK           SUNNY     54  26  34 N18       30.42S
WENATCHEE      SUNNY     50  30  46 W8        30.40S
ELLENSBURG     SUNNY     52  33  48 W3        30.37F
YAKIMA         SUNNY     58  25  28 SW7       30.39S
SUNNYSIDE ARPT SUNNY     56  31  39 SW3       30.38S
YAKIMA TC      FAIR      55  27  34 W6        30.35F
$$

WAZ028-034-035-231800-
COLUMBIA BASIN

CITY           SKY/WX    TMP DP  RH WIND       PRES   REMARKS
EPHRATA        SUNNY     57  22  25 NE12      30.37S
MOSES LAKE     SUNNY     57  22  25 NE9       30.38S
PASCO          SUNNY     57  30  35 N9        30.39S
RICHLAND ARPT  SUNNY     59  26  28 N6        30.40S
HERMISTON, OR  SUNNY     54  31  41 CALM      30.38S
$$

WAZ036>038-231800-
NORTHEAST WASHINGTON

CITY           SKY/WX    TMP DP  RH WIND       PRES   REMARKS
SPOKANE GEIGER MOSUNNY   49  27  42 N10       30.35S
SPOKANE FELTS  SUNNY     50  28  42 S5        30.37S
FAIRCHILD AFB  SUNNY     49  25  39 NE12      30.35R
COEURDALENE,ID SUNNY     50  29  44 N15       30.36R
DEER PARK      SUNNY     54  27  35 NE9       30.37S
$$

WAZ029>033-231800-
SOUTHEAST WASHINGTON

CITY           SKY/WX    TMP DP  RH WIND       PRES   REMARKS
PULLMAN        SUNNY     49  30  48 CALM      30.34R
LEWISTON, ID   SUNNY     51  35  54 VRB3      30.35R
WALLA WALLA    SUNNY     50  32  50 W6        30.37R
PENDLETON, OR  SUNNY     52  26  36 W7        30.36R
$$




USA.gov is the U.S. government's official web portal to all federal, state and local government web resources and services.